| time (UTC) | temp F | wind direction | speed MPH | gust MPH | rain 1hr in | rain 24hr in | rain mn in | humidity % | barometer mb |
| 20260503000015 | 43 | 229 | 0.0 | 2.0 | 0.00 | 0.23 | 0.13 | 67 | 1011.0 |
| 20260502234522 | 43 | 229 | 0.0 | 2.0 | 0.00 | 0.23 | 0.13 | 63 | 1011.0 |
| 20260502233011 | 43 | 249 | 0.0 | 2.0 | 0.00 | 0.23 | 0.13 | 62 | 1010.9 |
| 20260502231510 | 44 | 273 | 0.0 | 2.0 | 0.00 | 0.23 | 0.13 | 60 | 1011.0 |
| 20260502230025 | 43 | 265 | 1.0 | 3.0 | 0.00 | 0.23 | 0.13 | 61 | 1011.0 |
| 20260502224521 | 43 | 269 | 0.0 | 3.0 | 0.00 | 0.23 | 0.13 | 63 | 1011.0 |
| 20260502223024 | 44 | 263 | 1.0 | 3.0 | 0.00 | 0.23 | 0.13 | 61 | 1011.1 |
| 20260502221519 | 44 | 22 | 0.0 | 4.0 | 0.00 | 0.23 | 0.13 | 63 | 1011.0 |
| 20260502220018 | 44 | 331 | 2.0 | 5.0 | 0.00 | 0.23 | 0.13 | 57 | 1011.1 |
| 20260502214532 | 44 | 242 | 2.0 | 7.0 | 0.00 | 0.23 | 0.13 | 57 | 1011.0 |
| 20260502213012 | 44 | 252 | 1.0 | 4.0 | 0.00 | 0.23 | 0.13 | 60 | 1011.0 |
| 20260502211517 | 44 | 273 | 2.0 | 8.0 | 0.00 | 0.23 | 0.13 | 59 | 1010.8 |
| 20260502210021 | 44 | 348 | 1.0 | 5.0 | 0.00 | 0.23 | 0.13 | 59 | 1010.9 |
| 20260502204524 | 44 | 261 | 1.0 | 5.0 | 0.00 | 0.23 | 0.13 | 61 | 1010.9 |
| 20260502203022 | 44 | 279 | 0.0 | 7.0 | 0.00 | 0.23 | 0.13 | 62 | 1011.0 |
| 20260502201518 | 44 | 197 | 2.0 | 6.0 | 0.00 | 0.23 | 0.13 | 58 | 1011.0 |
| 20260502200021 | 44 | 266 | 3.0 | 8.0 | 0.00 | 0.23 | 0.13 | 59 | 1011.2 |
| 20260502194518 | 44 | 261 | 2.0 | 6.0 | 0.00 | 0.23 | 0.13 | 59 | 1011.2 |
| 20260502193014 | 45 | 318 | 2.0 | 7.0 | 0.00 | 0.23 | 0.13 | 63 | 1011.4 |
| 20260502191519 | 45 | 312 | 2.0 | 7.0 | 0.00 | 0.23 | 0.13 | 54 | 1011.5 |
| 20260502190014 | 45 | 11 | 2.0 | 7.0 | 0.00 | 0.26 | 0.13 | 59 | 1011.7 |
| 20260502184514 | 44 | 317 | 2.0 | 6.0 | 0.00 | 0.26 | 0.13 | 54 | 1011.8 |
| 20260502183009 | 44 | 234 | 2.0 | 4.0 | 0.00 | 0.26 | 0.13 | 57 | 1011.7 |
| 20260502181526 | 45 | 292 | 1.0 | 5.0 | 0.00 | 0.26 | 0.13 | 63 | 1011.7 |
| 20260502163017 | 42 | 304 | 2.0 | 6.0 | 0.00 | 0.28 | 0.13 | 73 | 1012.1 |
| 20260502161515 | 42 | 344 | 3.0 | 7.0 | 0.00 | 0.28 | 0.13 | 71 | 1012.0 |
| 20260502151521 | 40 | 30 | 0.0 | 5.0 | 0.00 | 0.36 | 0.13 | 83 | 1012.1 |
| 20260502123028 | 36 | 37 | 2.0 | 12.0 | 0.01 | 0.54 | 0.13 | 92 | 1011.2 |
| 20260502121517 | 37 | 14 | 1.0 | 4.0 | 0.01 | 0.54 | 0.13 | 93 | 1011.1 |
| 20260502114520 | 36 | 342 | 0.0 | 4.0 | 0.04 | 0.55 | 0.13 | 93 | 1010.9 |
| 20260502113024 | 35 | 67 | 1.0 | 7.0 | 0.03 | 0.54 | 0.12 | 93 | 1010.7 |
| 20260502111525 | 35 | 83 | 0.0 | 3.0 | 0.03 | 0.54 | 0.12 | 93 | 1010.6 |
| 20260502110023 | 36 | 331 | 0.0 | 4.0 | 0.01 | 0.54 | 0.10 | 93 | 1010.4 |
| 20260502104517 | 36 | 287 | 0.0 | 5.0 | 0.00 | 0.53 | 0.09 | 92 | 1010.2 |
| 20260502103017 | 36 | 262 | 1.0 | 4.0 | 0.02 | 0.53 | 0.09 | 92 | 1010.1 |
| 20260502101514 | 36 | 303 | 0.0 | 3.0 | 0.03 | 0.53 | 0.09 | 93 | 1010.0 |
| 20260502091509 | 37 | 51 | 1.0 | 2.0 | 0.00 | 0.50 | 0.06 | 94 | 1009.7 |
| 20260502071516 | 39 | 355 | 0.0 | 2.0 | 0.02 | 0.48 | 0.04 | 93 | 1009.5 |
| 20260502070018 | 39 | 33 | 0.0 | 2.0 | 0.04 | 0.48 | 0.04 | 93 | 1009.6 |
| 20260502064510 | 38 | 61 | 0.0 | 2.0 | 0.04 | 0.48 | 0.04 | 93 | 1009.7 |
| 20260502063014 | 39 | 53 | 3.0 | 5.0 | 0.03 | 0.47 | 0.03 | 93 | 1009.7 |
| 20260502061509 | 39 | 16 | 2.0 | 5.0 | 0.02 | 0.46 | 0.02 | 93 | 1009.8 |
| 20260502060012 | 40 | 28 | 3.0 | 4.0 | 0.00 | 0.44 | 0.00 | 93 | 1010.0 |
| 20260502054533 | 40 | 62 | 0.0 | 2.0 | 0.00 | 0.44 | 0.00 | 93 | 1010.1 |
| 20260502053026 | 40 | 128 | 0.0 | 0.0 | 0.00 | 0.44 | 0.00 | 93 | 1010.2 |
| 20260502051522 | 40 | 128 | 0.0 | 0.0 | 0.00 | 0.44 | 0.00 | 93 | 1010.1 |
| 20260502050022 | 40 | 128 | 0.0 | 0.0 | 0.00 | 0.44 | 0.00 | 93 | 1010.2 |
| 20260502044521 | 40 | 128 | 0.0 | 0.0 | 0.00 | 0.44 | 0.00 | 93 | 1010.2 |
| 20260502043017 | 40 | 128 | 0.0 | 0.0 | 0.00 | 0.44 | 0.00 | 92 | 1010.2 |
| 20260502041517 | 40 | 128 | 0.0 | 0.0 | 0.00 | 0.44 | 0.00 | 92 | 1010.3 |
| 20260502040014 | 40 | 128 | 0.0 | 0.0 | 0.01 | 0.44 | 0.44 | 91 | 1010.3 |
| 20260502034512 | 40 | 173 | 0.0 | 0.0 | 0.05 | 0.44 | 0.44 | 91 | 1010.3 |
| 20260502033010 | 40 | 175 | 0.0 | 2.0 | 0.09 | 0.44 | 0.44 | 90 | 1010.2 |
| 20260502031507 | 40 | 202 | 1.0 | 3.0 | 0.10 | 0.44 | 0.44 | 90 | 1010.3 |
| 20260502030008 | 40 | 235 | 1.0 | 5.0 | 0.09 | 0.43 | 0.43 | 90 | 1010.3 |
| 20260502024525 | 41 | 250 | 3.0 | 6.0 | 0.05 | 0.39 | 0.39 | 87 | 1010.3 |
| 20260502023020 | 42 | 237 | 0.0 | 0.0 | 0.01 | 0.35 | 0.35 | 88 | 1010.1 |
| 20260502021519 | 42 | 215 | 0.0 | 0.0 | 0.00 | 0.34 | 0.34 | 89 | 1009.8 |
| 20260502020018 | 42 | 215 | 0.0 | 0.0 | 0.00 | 0.34 | 0.34 | 91 | 1009.8 |
| 20260502014525 | 41 | 215 | 0.0 | 0.0 | 0.00 | 0.34 | 0.34 | 92 | 1009.6 |
| 20260502013016 | 41 | 251 | 0.0 | 0.0 | 0.00 | 0.34 | 0.34 | 92 | 1009.4 |
| 20260502011556 | 41 | 251 | 0.0 | 0.0 | 0.00 | 0.34 | 0.34 | 91 | 1009.4 |
| 20260502010022 | 41 | 251 | 0.0 | 0.0 | 0.00 | 0.34 | 0.34 | 89 | 1009.3 |
| 20260502004539 | 42 | 251 | 0.0 | 0.0 | 0.00 | 0.34 | 0.34 | 87 | 1009.3 |
| 20260502003019 | 42 | 251 | 0.0 | 0.0 | 0.00 | 0.34 | 0.34 | 85 | 1009.1 |
| 20260502001520 | 42 | 251 | 0.0 | 0.0 | 0.00 | 0.34 | 0.34 | 83 | 1008.9 |